Location: Acts Church of Fort Worth
(32.6786°N, 97.2668°W)
Time: 08:35:26
(UTC+00:00)

Cosmos 1340 Rocket - Pass Details

Date: 18 January 2026
Orbit: 486 x 516 km, 81.2° (Epoch: 10 February)

Event Time Altitude Azimuth Distance (km) Brightness Sun altitude
Rises 00:57:31 0° 349° (N) 2,628 6.2 -14.6°
Reaches altitude 10° 00:59:39 10° 348° (NNW) 1,742 5.3 -15.0°
Maximum altitude 01:03:28 72° 263° (W) 544 2.9 -15.8°
Drops below altitude 10° 01:07:16 10° 179° (S) 1,737 5.5 -16.6°
Sets 01:09:24 0° 178° (S) 2,620 6.4 -17.0°
